,UT
,RPM10-EBAM
Date,UG/M3
08-Jan-2023 00:00,3.2
08-Jan-2023 01:00,2.2
08-Jan-2023 02:00,7.8
08-Jan-2023 03:00,0.2
08-Jan-2023 04:00,2
08-Jan-2023 05:00,6.3
08-Jan-2023 06:00,0.6
08-Jan-2023 07:00,1.6
08-Jan-2023 08:00,7.8
08-Jan-2023 09:00,4.4
08-Jan-2023 10:00,4.9
08-Jan-2023 11:00,14.3
08-Jan-2023 12:00,8.8
08-Jan-2023 13:00,5.5
08-Jan-2023 14:00,14.6
08-Jan-2023 15:00,9.8
08-Jan-2023 16:00,12
08-Jan-2023 17:00,7.5
08-Jan-2023 18:00,11
08-Jan-2023 19:00,10.4
08-Jan-2023 20:00,17.7
08-Jan-2023 21:00,18.9
08-Jan-2023 22:00,17.9
08-Jan-2023 23:00,12.6
09-Jan-2023 00:00,16.4
09-Jan-2023 01:00,15.9
09-Jan-2023 02:00,9.6
09-Jan-2023 03:00,10.9
09-Jan-2023 04:00,9.4
09-Jan-2023 05:00,1
09-Jan-2023 06:00,7.6
09-Jan-2023 07:00,15.2
09-Jan-2023 08:00,14.1
09-Jan-2023 09:00,22.4
09-Jan-2023 10:00,32.9
09-Jan-2023 11:00,36.5
09-Jan-2023 12:00,10.1
09-Jan-2023 13:00,6.6
09-Jan-2023 14:00,1.9
09-Jan-2023 15:00,5.6
09-Jan-2023 16:00,0.5
09-Jan-2023 17:00,7.4
09-Jan-2023 18:00,2.8
09-Jan-2023 19:00,2.6
09-Jan-2023 20:00,1.3
09-Jan-2023 21:00,2.3
09-Jan-2023 22:00,1.7
09-Jan-2023 23:00,2
10-Jan-2023 00:00,1.9
10-Jan-2023 01:00,0.1
10-Jan-2023 02:00,0.2
10-Jan-2023 03:00,3.2
10-Jan-2023 04:00,0.2
10-Jan-2023 05:00,0.4
10-Jan-2023 06:00,0
10-Jan-2023 07:00,6.9
10-Jan-2023 08:00,3.3
10-Jan-2023 09:00,0.6
10-Jan-2023 10:00,5.6
10-Jan-2023 11:00,8.1
10-Jan-2023 12:00,10.1
10-Jan-2023 13:00,11.3
10-Jan-2023 14:00,9.8
10-Jan-2023 15:00,16.4
10-Jan-2023 16:00,14.9
10-Jan-2023 17:00,13.7
10-Jan-2023 18:00,1
10-Jan-2023 19:00,0.1
10-Jan-2023 20:00,1.2
10-Jan-2023 21:00,3.2
10-Jan-2023 22:00,1.1
10-Jan-2023 23:00,3.3
11-Jan-2023 00:00,5
11-Jan-2023 01:00,0.1
11-Jan-2023 02:00,0.7
11-Jan-2023 03:00,2.7
11-Jan-2023 04:00,6
11-Jan-2023 05:00,10.6
11-Jan-2023 06:00,1.1
11-Jan-2023 07:00,5
11-Jan-2023 08:00,5.8
11-Jan-2023 09:00,10
11-Jan-2023 10:00,18.7
11-Jan-2023 11:00,14.1
11-Jan-2023 12:00,19.7
11-Jan-2023 13:00,7.6
11-Jan-2023 14:00,8.9
11-Jan-2023 15:00,5.8
11-Jan-2023 16:00,8.7
11-Jan-2023 17:00,14.1
11-Jan-2023 18:00,18.9
11-Jan-2023 19:00,19.3
11-Jan-2023 20:00,15
11-Jan-2023 21:00,13.8
11-Jan-2023 22:00,17.2
11-Jan-2023 23:00,15.4
12-Jan-2023 00:00,10.9
12-Jan-2023 01:00,11.2
12-Jan-2023 02:00,4.3
12-Jan-2023 03:00,9.6
12-Jan-2023 04:00,9
12-Jan-2023 05:00,13.9
12-Jan-2023 06:00,7.4
12-Jan-2023 07:00,17.4
12-Jan-2023 08:00,25.3
12-Jan-2023 09:00,18.2
12-Jan-2023 10:00,21.9
12-Jan-2023 11:00,27
12-Jan-2023 12:00,19.3
12-Jan-2023 13:00,15.5
12-Jan-2023 14:00,16.3
12-Jan-2023 15:00,21
12-Jan-2023 16:00,31.6
12-Jan-2023 17:00,50.3
12-Jan-2023 18:00,63.3
12-Jan-2023 19:00,61.6
12-Jan-2023 20:00,63.5
12-Jan-2023 21:00,64.5
12-Jan-2023 22:00,50.4
12-Jan-2023 23:00,46
13-Jan-2023 00:00,52
13-Jan-2023 01:00,41.9
13-Jan-2023 02:00,34.5
13-Jan-2023 03:00,25.5
13-Jan-2023 04:00,25.8
13-Jan-2023 05:00,26.4
13-Jan-2023 06:00,29.6
13-Jan-2023 07:00,35.1
13-Jan-2023 08:00,32.1
13-Jan-2023 09:00,32.4
13-Jan-2023 10:00,
13-Jan-2023 11:00,
13-Jan-2023 12:00,
13-Jan-2023 13:00,
13-Jan-2023 14:00,
13-Jan-2023 15:00,
13-Jan-2023 16:00,
13-Jan-2023 17:00,
13-Jan-2023 18:00,
13-Jan-2023 19:00,
13-Jan-2023 20:00,
13-Jan-2023 21:00,
13-Jan-2023 22:00,
13-Jan-2023 23:00,
